Flag for U.S.A. Weather past 2 weeks in Des Moines, Iowa, U.S.A.

Now
67 °F

Mostly cloudy.


Feels Like: 67 °F
Forecast: 58 / 69 °F
Wind: 10 mph from Southeast

Location: Des Moines International Airport

Current Time: May 24, 2015 at 2:59:19 PM

Latest Report: May 24, 2015 at 1:54 PM


Visibility: 10 mi

Pressure: 29.84 "Hg

Humidity: 87%

Dew point: 63 °F

Location of Des MoinesLocation

Historic Weather in Des Moines — Graph

°F

Des Moines temperature yesterday

Maximum temperature yesterday: 73 °F (at 2:54 PM)
Minimum temperature yesterday: 57 °F (at 2:54 AM)
Average temperature yesterday: 66 °F

Past Weeks' High & Low Weather Summary

 TemperatureHumidityPressure
High80 °F (May 16, 12:54 PM)97% (May 15, 7:54 AM)30.39 "Hg (May 15, 7:54 AM)
Low39 °F (May 19, 5:54 AM)23% (May 21, 4:54 PM)29.62 "Hg (May 17, 4:54 AM)
Average61 °F66%30.05 "Hg
* Reported May 9 12:54 PM — May 24 12:54 PM, Des Moines, Weather by CustomWeather, © 2015

Note: Actual official high and low records may vary slightly from our data, if they occured in-between our weather recording intervals... More about our weather records

Advertising

Des Moines weather history for previous 24 hours

 ConditionsComfort  
Time TempWeatherWind HumidityBarometerVisibility
12:54 PM
Sun, May 24
65 °FLow clouds.12 mph91%29.85 "Hg8 mi
11:54 AM64 °FLow clouds.12 mph90%29.87 "Hg7 mi
10:54 AM63 °FFog.13 mph90%29.86 "Hg3 mi
10:04 AM62 °FLight rain. Fog.14 mph90%29.89 "Hg2 mi
9:54 AM62 °FFog.14 mph90%29.89 "Hg3 mi
9:02 AM63 °FMostly cloudy.17 mph87%29.92 "Hg10 mi
8:54 AM62 °FMostly cloudy.16 mph90%29.90 "Hg2 mi
7:54 AM62 °FLight rain. Mostly cloudy.10 mph90%29.94 "Hg2 mi
6:54 AM61 °FLight rain. Mostly cloudy.12 mph90%29.95 "Hg9 mi
5:54 AM60 °FRain. Fog.9 mph93%29.97 "Hg3 mi
4:54 AM61 °FLight rain. Low clouds.10 mph87%29.98 "Hg7 mi
3:54 AM62 °FLight rain. Overcast.9 mph86%30.00 "Hg7 mi
2:54 AM63 °FLight rain. Mostly cloudy.12 mph78%30.04 "Hg8 mi
1:54 AM67 °FLight rain. Mostly cloudy.10 mph61%30.04 "Hg10 mi
12:54 AM68 °FMostly cloudy.10 mph59%30.06 "Hg10 mi
11:54 PM
Sat, May 23
68 °FOvercast.9 mph59%30.06 "Hg10 mi
10:54 PM69 °FOvercast.7 mph57%30.08 "Hg10 mi
9:54 PM69 °FOvercast.7 mph57%30.09 "Hg10 mi
8:54 PM70 °FOvercast.6 mph55%30.09 "Hg10 mi
7:54 PM71 °FOvercast.7 mph53%30.08 "Hg10 mi
6:54 PM72 °FMostly cloudy.6 mph52%30.09 "Hg10 mi
5:54 PM72 °FOvercast.15 mph52%30.11 "Hg10 mi
4:54 PM73 °FMostly cloudy.13 mph50%30.11 "Hg10 mi
3:54 PM73 °FBroken clouds.15 mph48%30.13 "Hg10 mi
2:54 PM73 °FBroken clouds.16 mph43%30.16 "Hg10 mi
Weather by CustomWeather, © 2015

See weather overviewHow to use our weather pages